Dewpoint
-10 -10 -11 -11 -12 -12 -12 -13 -13 -14 -14 -14 -13 -16 -18 -18 -18 -18 -15 -7 -9 -14 -12 4 7 7 3 0 -0 4 8 16 13 12 6 4 0 2 6 10 10 8 14 16 16
-9 -10 -10 -11 -12 -13 -13 -14 -15 -15 -15 -13 -12 -13 -14 -17 -17 -20 -5 -10 -9 -17 -10 -1 3 3 -0 -2 -2 2 12 11 8 6 1 -1 0 -0 10 12 10 3 14 16 15
-7 -8 -9 -10 -11 -12 -13 -14 -15 -15 -15 -13 -12 -10 -9 -12 -4 1 -3 -4 -12 -17 -4 -2 1 -1 -4 -4 -1 3 11 11 9 2 -0 -1 -2 1 9 11 8 5 12 15 15
-6 -7 -8 -9 -10 -11 -12 -14 -15 -14 -14 -14 -14 -10 -8 -10 1 4 -3 -10 -11 -16 2 0 -3 -6 -7 -4 -2 2 1 6 1 1 0 -1 -1 -2 -1 7 6 6 14 15 14
-6 -7 -7 -8 -9 -10 -11 -12 -13 -13 -13 -14 -14 -11 -8 4 -0 -6 -2 -11 -15 -10 1 -4 -5 -7 -7 -6 -2 0 0 -0 1 1 0 -1 -2 -1 4 7 11 13 14 14 14
-7 -8 -8 -9 -9 -9 -10 -11 -12 -13 -13 -13 -14 -12 -6 3 -1 -12 -1 -10 -13 0 -2 -5 -7 -8 -8 -5 -4 -3 0 1 -1 -0 -1 -1 2 2 2 4 9 12 12 13 13
-8 -9 -9 -10 -10 -11 -10 -10 -11 -12 -13 -13 -13 -12 2 1 -1 -3 -0 -2 -2 1 -5 -6 -7 -6 -7 -3 -3 -5 -2 1 0 -1 -1 -4 6 5 -2 1 7 10 11 11 13
-9 -9 -10 -11 -12 -12 -12 -12 -11 -12 -13 -13 -12 -11 2 0 -1 -1 -0 -0 -1 -2 -5 -5 -5 -3 -1 -2 -1 1 -0 3 -0 -2 -2 -2 6 7 2 4 7 8 10 10 12
-9 -9 -9 -10 -12 -13 -13 -13 -13 -12 -11 -12 -5 4 -0 -1 -2 -3 -0 -2 -3 -5 -5 -3 0 0 -1 -0 1 -0 2 0 8 8 -3 -2 6 7 6 7 7 8 9 10 12
-8 -8 -9 -9 -10 -14 -14 -13 -12 -3 -4 -9 -7 4 2 -1 -3 -3 -2 -1 -3 -6 -5 -2 -2 0 -1 0 4 -1 1 7 11 8 -2 -3 -2 6 3 3 4 8 9 10 11
-6 -7 -8 -9 -10 -12 -14 -2 4 7 4 1 -0 -9 -4 -0 -2 -2 -3 -3 -3 -5 -5 -5 -2 -2 -3 -2 -2 -2 -0 -0 10 5 -1 -1 -2 -1 2 4 1 7 9 10 10
-6 -6 -6 -8 -10 -11 -7 1 -3 -5 -5 -6 -8 -9 -10 -2 0 -2 -4 -5 -3 -2 -5 -6 -4 -6 -5 -5 -5 -2 -1 -1 -2 -2 -1 -1 -2 1 9 9 7 6 8 9 10
-8 -7 -6 -6 -9 -7 -3 -4 -5 -5 -4 -8 -10 -10 -11 -9 -4 -3 -4 -5 -3 -2 -3 -4 -8 -9 -9 -8 -7 -5 -3 -2 -2 -4 -1 -1 0 0 9 6 3 3 7 7 8
-11 -11 -8 -6 -7 -2 -5 -2 -6 -3 -3 -9 -10 -11 -12 -11 -11 -10 -4 -4 -3 -2 -3 -3 -6 -8 -10 -10 -10 -8 -6 -5 -4 -3 -1 -3 2 3 8 8 5 6 4 5 7
-12 -12 -11 -7 -7 -4 -3 -4 -6 -4 -1 -11 -11 -12 -12 -12 -13 -12 -3 -3 -2 -2 -4 -3 -5 -8 -9 -9 -12 -10 -8 -5 -4 -3 -3 -2 -2 7 6 8 6 5 6 5 8
-11 -13 -12 -5 -5 -8 -4 -6 -5 -2 -3 -9 -10 -9 -10 -12 -14 -12 -6 -2 -3 -3 -4 -5 -8 -10 -10 -11 -10 -11 -9 -4 -3 -6 -2 -2 -2 6 10 9 7 5 3 7 14
-11 -12 -15 -10 -3 -3 -4 -6 -4 -2 -10 -12 -10 -11 -11 -10 -12 -12 -11 -3 -1 0 -1 -2 -6 -8 -8 -8 -9 -8 -5 -0 1 -1 0 1 -2 5 5 6 6 6 6 12 15
-12 -13 -15 -15 -8 -3 -4 -5 -0 -5 -8 -13 -13 -13 -11 -12 -11 -12 -9 -4 -3 -2 -2 0 0 -6 -8 -8 -8 -6 -4 -0 4 3 4 10 8 9 6 5 3 4 7 13 15
-11 -8 -2 -16 -12 -2 -4 -3 -4 -4 -7 -11 -13 -11 -12 -13 -12 -11 -7 -6 -4 -3 1 -2 -2 -6 -8 -8 -9 -7 -4 -5 -1 -2 3 10 6 3 3 5 7 6 6 12 14
-9 -3 -3 -3 -2 -4 -4 -3 -8 -11 -10 -12 -11 -13 -12 -13 -11 -10 -6 -7 -6 -6 -5 -2 -0 -5 -7 -6 -7 -7 -7 -2 -4 3 4 3 4 8 11 11 8 8 7 11 15
-4 0 -5 -3 -3 -4 -4 -7 -9 -11 -11 -12 -10 -10 -12 -13 -10 -9 -9 -7 -8 -7 -7 -5 -2 -3 -7 -6 -5 -6 -6 -5 -3 -2 1 4 10 10 10 10 11 9 9 11 15
-0 -2 -2 -3 -5 -6 -5 -7 -10 -12 -12 -12 -12 -11 -11 -12 -9 -7 -8 -9 -9 -9 -5 -6 -4 -1 -3 -7 -7 -7 -5 -4 1 6 1 3 11 7 12 11 9 9 11 12 14
1 -3 -2 -2 -2 -6 -8 -9 -10 -11 -10 -11 -12 -12 -12 -9 -7 -6 -7 -10 -9 -9 -5 -6 -3 -1 1 -3 -5 -5 -6 -5 -0 5 6 3 4 7 10 12 10 10 12 13 15
2 -3 -5 -3 -4 -5 -5 -6 -7 -11 -11 -10 -12 -13 -12 -9 -9 -6 -5 -8 -7 -7 1 -0 2 1 -0 0 1 -2 -4 -6 -2 2 1 -1 10 9 11 12 13 12 12 15 15
2 -2 -2 -2 -5 -5 -5 -3 -3 -7 -9 -9 -9 -11 -10 -6 -7 -7 -6 -3 -8 -5 -3 -1 7 2 -2 -1 -1 0 -1 -4 -5 -2 -2 1 5 11 12 11 7 12 15 16 16
2 1 1 0 1 2 -1 -5 -2 -3 -7 -7 -9 -9 -9 -4 -5 -4 -6 -3 -2 -4 -0 1 6 4 3 -0 -2 -0 -1 -4 -6 -7 -5 -4 12 10 8 6 6 10 16 15 15
2 1 1 -0 -1 -1 -0 -1 -4 -3 -3 -9 -6 -7 -7 -6 -7 -7 -8 -1 -1 -0 2 5 5 8 6 1 -0 2 -1 0 -4 -5 -4 7 11 10 10 10 9 15 14 14 15
Wind_Speed
9 9 9 10 10 12 12 12 12 12 11 10 9 8 7 7 8 10 11 7 8 10 8 6 9 10 11 16 16 14 5 3 3 17 7 14 3 4 22 35 38 42 10 27 23
9 9 10 10 11 12 13 13 13 13 10 10 10 9 8 9 12 15 10 9 12 9 10 10 10 10 13 14 13 12 6 8 13 19 11 12 1 9 20 35 18 15 7 15 21
9 9 9 10 11 12 12 14 13 13 11 10 10 8 8 9 6 4 4 6 7 8 9 9 7 10 13 16 17 16 10 31 26 4 11 10 14 3 34 17 7 33 20 16 17
9 10 10 10 10 12 12 13 13 12 12 10 10 8 7 6 3 2 3 4 7 10 11 11 11 11 13 14 17 14 16 34 9 8 11 12 19 11 7 15 18 20 24 21 17
9 10 11 11 11 12 12 13 12 12 12 11 9 8 6 5 5 3 4 5 9 16 12 12 13 12 13 16 16 13 14 20 10 14 13 8 11 12 28 21 21 21 22 20 15
9 10 11 12 12 12 13 13 13 12 12 10 8 7 5 9 5 3 7 6 10 13 11 13 10 12 17 17 20 18 16 16 23 13 15 8 15 22 13 19 18 18 17 17 17
9 10 11 11 12 13 13 13 13 13 13 10 8 8 8 11 4 3 8 8 11 10 10 12 13 13 16 14 21 18 19 14 16 20 19 7 12 3 6 18 6 15 15 16 17
10 11 11 12 12 13 13 13 13 14 13 9 8 8 8 9 5 10 10 10 10 10 11 9 11 15 19 17 23 13 16 14 18 21 4 5 5 10 22 23 9 10 13 15 15
10 11 12 12 13 13 13 14 14 14 11 9 2 5 10 6 11 14 14 12 9 9 8 9 9 15 16 14 14 16 16 21 8 37 8 5 8 15 24 27 15 11 11 13 14
10 11 12 12 13 14 13 14 12 13 9 6 7 7 13 8 10 14 15 13 11 9 8 10 9 12 13 14 13 18 13 6 10 26 13 10 8 17 17 12 13 21 14 12 15
11 11 12 12 13 14 11 14 10 1 6 14 2 14 4 4 9 14 16 14 13 12 12 14 11 14 17 17 17 21 19 14 22 17 3 8 9 4 9 16 10 20 19 15 12
13 12 12 12 11 10 6 9 5 8 13 19 23 23 17 10 11 14 18 16 17 13 14 12 14 17 16 16 16 15 16 16 13 9 4 9 11 9 17 23 49 31 15 14 15
14 14 13 11 10 6 6 8 8 11 9 18 24 22 20 18 19 19 23 23 17 16 16 15 8 15 14 15 14 15 14 15 14 14 6 10 12 13 8 27 27 27 13 12 12
15 14 13 9 6 4 7 2 8 8 6 11 16 13 18 18 18 23 25 24 13 16 17 15 18 16 7 14 13 14 14 12 14 13 11 8 10 6 14 16 6 37 13 8 8
14 13 10 9 8 5 4 7 9 5 6 8 18 13 17 18 4 24 26 24 19 17 12 17 13 15 17 12 13 14 13 8 8 13 14 17 10 7 5 7 7 11 38 6 11
14 14 9 5 10 10 9 8 6 6 9 10 13 12 15 22 15 10 27 22 21 20 18 17 18 11 13 14 13 11 14 6 12 13 13 15 14 7 5 10 5 17 5 14 21
14 14 12 13 10 4 6 6 6 8 7 9 14 13 18 17 18 13 19 19 18 15 18 18 18 12 11 13 13 11 11 9 10 10 13 14 17 7 18 17 12 12 12 22 24
15 14 14 16 14 7 6 8 11 9 22 12 2 14 20 20 19 19 16 18 22 23 13 14 14 20 16 15 13 17 14 11 14 9 4 13 11 5 16 13 10 14 18 27 24
15 7 12 8 15 10 11 12 8 16 16 10 11 14 13 16 17 19 19 19 21 23 19 14 18 10 18 13 14 12 11 16 17 18 5 9 13 9 7 12 11 13 11 23 24
18 10 16 9 12 13 10 17 16 23 19 14 11 14 16 18 13 13 17 18 20 22 21 20 13 13 9 16 16 16 9 9 10 15 14 8 13 8 6 8 6 8 11 20 25
11 7 7 18 13 16 13 19 18 29 14 8 11 16 17 19 14 19 18 16 18 20 20 16 13 14 11 11 13 11 14 13 11 11 12 9 4 1 2 4 1 8 11 17 25
7 7 13 14 13 17 14 21 26 23 16 14 15 18 19 16 13 8 15 16 17 16 17 12 7 12 15 12 11 17 14 16 9 12 12 6 4 13 6 3 19 27 15 19 23
8 15 10 14 10 13 19 23 25 21 16 13 14 16 16 16 11 11 17 8 5 12 5 13 8 11 13 11 14 17 15 14 12 12 13 8 4 13 24 11 23 20 18 20 26
7 4 14 15 21 20 17 18 21 25 18 18 16 17 16 14 15 12 15 9 6 9 8 6 9 11 13 8 7 9 12 14 15 11 14 14 9 9 8 6 13 6 16 24 25
7 7 14 6 12 16 19 19 21 17 14 19 19 19 17 16 15 17 17 17 11 6 8 8 13 14 18 16 10 13 17 16 18 16 12 8 7 13 10 4 10 14 14 19 17
15 10 18 21 18 15 12 20 19 18 18 19 18 18 15 15 15 14 15 15 14 13 11 13 12 13 18 20 17 13 14 9 13 16 18 17 18 11 18 15 10 12 12 15 16
14 11 10 13 15 11 12 15 18 19 21 24 15 18 17 16 21 20 22 9 12 14 9 14 12 12 16 18 18 16 8 13 14 13 14 2 15 16 12 3 15 20 17 17 17
Wind_Direction
14 10 8 5 1 358 358 355 351 348 345 343 339 330 319 300 291 277 262 236 250 242 215 215 222 243 259 261 259 278 356 15 171 279 145 252 69 187 79 85 349 348 118 145 152
9 3 2 359 356 355 352 350 347 346 346 344 339 330 317 303 297 278 247 244 242 224 202 198 220 233 247 261 250 235 85 285 233 216 344 324 201 12 93 106 163 297 27 139 147
360 355 352 353 350 350 347 347 346 344 342 340 338 329 317 314 315 227 232 250 233 203 184 195 230 238 253 255 244 246 164 226 255 13 309 332 300 167 129 129 161 204 174 168 161
347 344 343 343 342 342 342 343 342 342 340 336 334 327 319 312 358 245 210 224 194 171 184 212 231 239 259 255 254 246 274 193 290 327 302 308 341 337 350 164 164 175 154 163 167
336 336 335 335 335 336 335 336 336 339 337 333 329 324 321 281 256 269 216 183 173 170 198 210 227 243 251 260 257 252 268 285 284 286 292 336 302 328 8 130 133 139 159 171 154
330 330 329 329 329 330 329 330 329 332 330 328 323 316 306 254 274 219 216 180 173 175 205 213 228 236 262 282 289 276 254 263 274 284 283 273 59 58 328 331 134 142 158 167 164
328 326 326 325 325 325 326 324 322 324 321 319 316 308 275 246 181 191 195 183 179 192 212 222 235 261 251 266 267 271 272 273 269 252 247 281 50 72 266 256 186 149 162 167 167
324 324 325 326 325 322 322 318 315 316 312 309 304 302 271 200 194 196 188 192 204 213 236 239 236 265 266 274 282 263 271 265 257 276 211 209 140 219 230 235 173 170 168 162 169
323 324 326 328 326 323 321 315 309 305 301 295 312 309 264 241 206 201 197 197 203 216 230 230 239 244 254 250 263 251 250 243 22 308 277 202 144 206 214 218 158 178 172 167 171
317 320 324 327 328 327 327 316 302 295 286 264 232 262 231 243 208 194 194 203 202 205 204 224 231 245 234 247 248 261 261 70 91 266 195 238 256 171 215 169 195 172 169 171 179
314 317 322 325 328 332 342 334 315 344 260 241 191 243 125 188 169 193 193 195 201 212 225 196 218 229 239 230 262 288 304 314 181 231 351 286 288 330 180 4 239 164 164 173 199
305 307 311 319 324 332 336 328 29 324 297 263 258 249 249 199 195 200 191 195 203 218 219 229 233 247 250 263 273 282 287 286 292 276 231 290 297 56 89 91 287 298 168 183 188
299 297 298 308 319 334 318 303 318 330 271 281 240 229 216 214 227 195 196 203 202 225 223 229 244 210 242 260 256 267 270 284 276 300 223 260 259 255 119 151 227 278 170 199 189
304 295 290 287 307 275 289 283 326 324 277 255 193 222 206 206 234 228 196 206 236 228 228 247 241 259 253 244 252 258 253 249 283 292 278 292 283 251 156 195 252 311 174 195 164
307 301 286 276 271 240 305 309 309 291 282 123 163 149 192 194 155 205 190 208 224 231 237 241 235 240 245 242 236 256 275 309 299 275 274 269 272 57 92 82 92 341 281 164 144
309 297 286 292 262 243 289 302 294 233 240 189 146 194 192 210 236 179 191 207 228 247 242 249 245 232 243 238 249 250 268 246 272 266 262 250 256 183 125 207 202 207 139 120 107
310 290 268 235 204 198 265 258 221 236 214 237 177 200 209 207 218 201 197 198 219 222 240 237 242 227 243 257 224 228 255 241 245 233 244 278 235 238 157 165 179 164 128 114 128
313 282 264 238 225 275 257 228 235 248 241 303 279 202 207 217 196 204 204 217 218 233 243 220 233 218 210 229 246 207 240 242 245 229 326 357 325 11 116 110 117 135 160 137 143
320 288 274 226 218 211 227 220 224 240 285 265 224 247 258 241 251 198 205 219 218 221 243 258 249 214 210 192 240 244 214 252 272 284 225 190 227 180 160 118 127 140 177 141 149
323 294 240 218 202 195 227 241 238 255 293 295 266 256 240 248 218 240 206 217 228 218 224 257 274 281 204 193 204 249 226 231 240 265 278 205 214 147 94 55 132 162 183 140 147
324 262 144 170 178 209 223 233 242 262 298 272 276 262 267 264 230 217 241 228 216 224 226 223 255 274 244 204 237 206 243 253 256 239 251 277 71 105 175 223 268 217 175 153 148
288 247 176 179 198 224 232 237 258 266 242 231 264 281 285 278 281 264 258 245 224 209 218 216 233 243 262 190 229 260 227 230 244 246 267 290 161 165 142 6 236 236 156 161 155
292 259 202 201 232 231 235 247 249 253 255 250 233 256 264 277 282 258 262 296 357 186 274 205 214 250 255 243 194 218 235 219 227 273 282 293 247 172 147 227 209 141 151 138 140
287 247 225 209 242 260 263 252 234 242 252 235 252 236 258 246 255 261 264 262 174 257 28 347 275 223 243 247 9 226 242 253 249 229 244 248 103 75 342 19 25 359 139 126 134
248 265 345 243 223 233 255 267 273 229 205 246 260 247 231 244 243 236 251 275 175 201 254 253 261 260 247 279 265 273 241 217 247 240 257 285 158 178 154 77 14 319 125 134 136
310 344 334 302 309 296 271 242 256 273 223 225 236 255 236 251 240 244 238 258 277 185 212 248 245 261 271 278 265 225 258 274 225 244 248 257 103 163 148 185 187 254 166 159 157
340 316 301 293 287 272 276 269 240 261 274 240 215 236 245 240 250 252 257 294 277 271 212 218 244 240 255 253 265 271 257 282 254 263 279 314 150 163 178 164 214 195 182 164 141
Height
1516 1515 1513 1512 1510 1509 1508 1507 1506 1504 1502 1500 1499 1497 1496 1495 1494 1493 1492 1494 1492 1493 1494 1495 1495 1496 1495 1493 1492 1492 1496 1527 1517 1505 1475 1465 1463 1465 1473 1481 1496 1500 1496 1500 1508
1516 1515 1513 1512 1510 1509 1508 1507 1505 1503 1502 1500 1498 1496 1496 1494 1492 1489 1491 1490 1491 1492 1493 1496 1496 1496 1494 1490 1489 1489 1511 1522 1488 1479 1465 1462 1462 1465 1480 1488 1503 1501 1504 1507 1505
1516 1515 1514 1512 1510 1509 1508 1506 1504 1503 1501 1500 1498 1497 1495 1493 1491 1489 1488 1489 1490 1491 1494 1496 1496 1496 1492 1488 1484 1482 1503 1482 1481 1469 1468 1465 1462 1464 1479 1492 1497 1490 1492 1501 1504
1516 1515 1513 1512 1510 1509 1507 1506 1504 1502 1501 1499 1497 1496 1494 1493 1489 1488 1488 1489 1489 1492 1495 1497 1496 1494 1491 1485 1479 1478 1473 1480 1467 1467 1468 1464 1462 1462 1463 1474 1479 1484 1486 1495 1501
1516 1514 1513 1511 1509 1508 1507 1505 1503 1502 1500 1498 1497 1495 1494 1494 1491 1487 1488 1488 1489 1491 1495 1496 1496 1493 1490 1482 1476 1473 1470 1467 1464 1466 1464 1465 1466 1464 1468 1469 1475 1482 1488 1494 1494
1516 1514 1512 1510 1509 1507 1505 1504 1502 1501 1499 1497 1496 1495 1494 1493 1487 1486 1488 1488 1489 1492 1495 1496 1494 1492 1488 1480 1474 1468 1464 1464 1464 1464 1464 1461 1468 1469 1473 1476 1476 1481 1487 1491 1494
1515 1513 1511 1509 1508 1506 1504 1502 1501 1499 1497 1496 1495 1494 1492 1492 1490 1486 1487 1488 1491 1493 1494 1495 1493 1491 1488 1483 1474 1470 1468 1463 1464 1462 1458 1461 1473 1476 1474 1476 1478 1480 1486 1489 1493
1513 1512 1510 1509 1507 1505 1503 1501 1499 1497 1496 1495 1494 1493 1490 1487 1488 1488 1489 1491 1492 1493 1494 1493 1493 1491 1487 1481 1474 1469 1465 1475 1456 1454 1455 1461 1481 1472 1468 1473 1475 1479 1483 1487 1492
1512 1511 1509 1507 1505 1504 1501 1499 1496 1495 1494 1493 1494 1493 1486 1484 1484 1486 1489 1490 1491 1492 1492 1492 1492 1490 1485 1481 1479 1465 1474 1463 1483 1465 1455 1458 1469 1464 1464 1468 1469 1477 1481 1485 1490
1511 1509 1508 1506 1504 1501 1500 1497 1493 1492 1492 1491 1491 1495 1484 1481 1481 1484 1487 1489 1491 1491 1492 1492 1490 1486 1481 1478 1487 1466 1462 1484 1513 1485 1455 1457 1454 1458 1462 1461 1464 1468 1475 1481 1486
1510 1508 1507 1505 1503 1501 1499 1495 1494 1494 1490 1484 1483 1479 1478 1480 1482 1483 1485 1487 1489 1489 1488 1486 1488 1484 1474 1466 1464 1457 1458 1461 1480 1463 1455 1460 1454 1450 1456 1466 1458 1459 1469 1476 1480
1508 1507 1505 1504 1502 1501 1499 1498 1498 1500 1488 1480 1477 1477 1476 1477 1479 1480 1483 1485 1485 1484 1483 1482 1484 1471 1466 1462 1462 1460 1463 1464 1453 1448 1453 1456 1456 1456 1464 1478 1473 1472 1468 1473 1476
1506 1504 1503 1503 1502 1501 1500 1500 1498 1498 1490 1470 1467 1468 1470 1475 1472 1472 1479 1479 1478 1479 1475 1478 1464 1460 1466 1465 1468 1465 1466 1461 1459 1448 1443 1451 1460 1456 1475 1467 1464 1463 1465 1469 1472
1504 1503 1502 1502 1503 1500 1500 1499 1499 1499 1490 1460 1455 1461 1464 1469 1467 1466 1471 1476 1472 1473 1470 1468 1462 1460 1465 1467 1464 1473 1454 1456 1458 1461 1470 1446 1473 1450 1468 1468 1467 1462 1460 1465 1471
1501 1500 1500 1500 1500 1500 1501 1500 1499 1499 1502 1440 1450 1456 1460 1464 1454 1459 1464 1471 1469 1466 1467 1465 1460 1462 1464 1462 1458 1465 1451 1455 1457 1462 1463 1460 1467 1476 1459 1477 1472 1465 1457 1462 1470
1499 1497 1498 1499 1497 1498 1499 1500 1500 1499 1491 1445 1447 1453 1455 1457 1453 1453 1460 1467 1466 1462 1457 1457 1450 1452 1455 1452 1454 1455 1457 1460 1462 1463 1480 1460 1463 1474 1474 1472 1464 1459 1459 1466 1474
1497 1495 1494 1495 1496 1496 1499 1500 1497 1491 1444 1443 1442 1444 1448 1449 1451 1450 1456 1461 1467 1474 1470 1454 1454 1451 1455 1456 1451 1456 1467 1486 1491 1484 1481 1450 1455 1456 1444 1451 1453 1456 1461 1470 1476
1493 1491 1490 1490 1492 1497 1499 1496 1495 1458 1453 1432 1430 1432 1441 1438 1440 1445 1452 1459 1457 1455 1456 1465 1469 1448 1445 1453 1454 1454 1463 1479 1495 1483 1482 1473 1474 1458 1439 1446 1450 1453 1460 1468 1476
1489 1487 1485 1486 1489 1493 1497 1490 1475 1462 1445 1437 1434 1446 1442 1437 1433 1437 1446 1450 1447 1450 1460 1454 1450 1425 1433 1441 1448 1451 1464 1451 1465 1454 1468 1483 1457 1445 1443 1447 1454 1456 1461 1467 1477
1487 1485 1483 1485 1488 1492 1491 1481 1462 1453 1446 1445 1449 1442 1447 1433 1434 1436 1436 1436 1439 1439 1442 1444 1458 1433 1427 1434 1441 1447 1442 1466 1461 1487 1486 1458 1456 1461 1460 1462 1459 1460 1463 1468 1477
1487 1482 1474 1482 1486 1488 1480 1471 1461 1456 1454 1453 1451 1449 1439 1434 1426 1432 1433 1428 1427 1430 1433 1437 1448 1446 1429 1439 1446 1446 1452 1446 1444 1449 1466 1469 1486 1463 1464 1458 1463 1462 1464 1469 1475
1488 1480 1476 1480 1483 1478 1471 1467 1462 1452 1450 1453 1455 1450 1444 1434 1433 1431 1431 1424 1419 1423 1431 1434 1442 1456 1439 1428 1434 1431 1438 1442 1459 1463 1447 1450 1474 1451 1469 1463 1449 1465 1463 1468 1475
1488 1477 1474 1477 1474 1468 1465 1462 1457 1453 1450 1451 1452 1451 1444 1442 1446 1435 1430 1420 1417 1423 1430 1428 1444 1460 1452 1433 1427 1435 1431 1432 1439 1445 1456 1465 1460 1452 1468 1462 1445 1449 1462 1468 1475
1491 1472 1470 1471 1470 1464 1455 1451 1449 1448 1447 1450 1447 1447 1446 1447 1440 1444 1435 1423 1427 1428 1433 1434 1438 1448 1451 1441 1436 1438 1432 1429 1433 1450 1449 1446 1459 1453 1452 1461 1444 1460 1464 1471 1479
1489 1473 1467 1458 1460 1461 1459 1454 1444 1444 1446 1451 1449 1444 1442 1448 1445 1443 1437 1428 1426 1433 1436 1437 1447 1437 1431 1427 1426 1427 1425 1425 1432 1429 1445 1439 1446 1459 1454 1454 1457 1470 1472 1476 1482
1491 1484 1477 1471 1468 1463 1452 1452 1448 1440 1442 1444 1448 1441 1441 1443 1441 1442 1438 1436 1432 1429 1436 1436 1447 1441 1441 1428 1423 1428 1421 1419 1421 1424 1425 1425 1465 1465 1462 1464 1463 1478 1482 1482 1483
1496 1492 1489 1476 1469 1463 1453 1448 1447 1446 1441 1438 1438 1441 1441 1440 1439 1437 1433 1434 1431 1432 1433 1439 1440 1446 1451 1433 1428 1435 1423 1422 1419 1420 1422 1439 1454 1464 1472 1473 1474 1482 1484 1483 1484